When you browse on this site, cookies collect data to enhance your experience and personalize the content and advertising you see.
Visit our Privacy Policy to learn more. By continuing to use the site, you agree to this use of cookies and data.
  • In United Kingdom
  • List of Countries
  • For 7 days
  • Water Temperature
  • Satellite Maps
  • Weather Map
  • Weather Widgets
  • user-avatar
    Login

    Hourly Weather Marsa Alam

    Today, 20 May, Monday

    Time Temperature Precipitation Wind Pressure Humidity
    00:00 +27°C° 0 mm 1 mps 712 mmHg 20%
    01:00 +27°C° 0 mm 1 mps 712 mmHg 20%
    02:00 +26°C° 0 mm 1 mps 712 mmHg 19%
    03:00 +26°C° 0 mm 1 mps 712 mmHg 18%
    04:00 +26°C° 0 mm 1 mps 712 mmHg 18%
    05:00 +25°C° 0 mm 1 mps 712 mmHg 18%
    06:00 +27°C° 0 mm 1 mps 713 mmHg 17%
    07:00 +29°C° 0 mm 2 mps 713 mmHg 16%
    08:00 +31°C° 0 mm 2 mps 714 mmHg 15%
    09:00 +33°C° 0 mm 3 mps 714 mmHg 14%
    10:00 +34°C° 0 mm 3 mps 714 mmHg 13%
    11:00 +35°C° 0 mm 4 mps 714 mmHg 13%
    12:00 +36°C° 0 mm 4 mps 714 mmHg 13%
    13:00 +36°C° 0 mm 5 mps 714 mmHg 14%
    14:00 +36°C° 0 mm 5 mps 714 mmHg 15%
    15:00 +35°C° 0 mm 5 mps 713 mmHg 17%
    16:00 +35°C° 0 mm 5 mps 713 mmHg 18%
    17:00 +34°C° 0 mm 4 mps 713 mmHg 20%
    18:00 +33°C° 0 mm 3 mps 713 mmHg 21%
    19:00 +31°C° 0 mm 2 mps 713 mmHg 23%
    20:00 +30°C° 0 mm 1 mps 713 mmHg 25%
    21:00 +29°C° 0 mm 1 mps 713 mmHg 25%
    22:00 +28°C° 0 mm 1 mps 713 mmHg 25%
    23:00 +28°C° 0 mm 2 mps 713 mmHg 25%

    Tomorrow, 21 May, Tuesday

    Time Temperature Precipitation Wind Pressure Humidity
    00:00 +27°C° 0 mm 1 mps 713 mmHg 25%
    01:00 +27°C° 0 mm 1 mps 713 mmHg 25%
    02:00 +26°C° 0 mm 1 mps 713 mmHg 25%
    03:00 +26°C° 0 mm 1 mps 713 mmHg 25%
    04:00 +26°C° 0 mm 1 mps 713 mmHg 25%
    05:00 +26°C° 0 mm 1 mps 713 mmHg 25%
    06:00 +28°C° 0 mm 2 mps 714 mmHg 23%
    07:00 +29°C° 0 mm 4 mps 714 mmHg 21%
    08:00 +32°C° 0 mm 5 mps 715 mmHg 20%
    09:00 +33°C° 0 mm 5 mps 715 mmHg 19%
    10:00 +35°C° 0 mm 6 mps 715 mmHg 19%
    11:00 +36°C° 0 mm 7 mps 715 mmHg 19%
    12:00 +36°C° 0 mm 6 mps 715 mmHg 19%
    13:00 +36°C° 0 mm 6 mps 715 mmHg 18%
    14:00 +37°C° 0 mm 5 mps 714 mmHg 18%
    15:00 +36°C° 0 mm 5 mps 714 mmHg 19%
    16:00 +36°C° 0 mm 5 mps 714 mmHg 19%
    17:00 +35°C° 0 mm 4 mps 713 mmHg 20%
    18:00 +34°C° 0 mm 3 mps 714 mmHg 22%
    19:00 +32°C° 0 mm 2 mps 714 mmHg 25%
    20:00 +31°C° 0 mm 2 mps 714 mmHg 27%
    21:00 +30°C° 0 mm 1 mps 714 mmHg 27%
    22:00 +29°C° 0 mm 1 mps 714 mmHg 27%
    23:00 +29°C° 0 mm 1 mps 715 mmHg 27%

    Day after tomorrow, 22 May, Wednesday

    Time Temperature Precipitation Wind Pressure Humidity
    00:00 +29°C° 0 mm 1 mps 714 mmHg 25%
    01:00 +29°C° 0 mm 1 mps 714 mmHg 24%
    02:00 +28°C° 0 mm 1 mps 714 mmHg 22%
    03:00 +28°C° 0 mm 1 mps 714 mmHg 21%
    04:00 +28°C° 0 mm 1 mps 714 mmHg 20%
    05:00 +28°C° 0 mm 1 mps 714 mmHg 19%
    06:00 +30°C° 0 mm 3 mps 714 mmHg 17%
    07:00 +34°C° 0 mm 4 mps 715 mmHg 14%
    08:00 +36°C° 0 mm 5 mps 716 mmHg 11%
    09:00 +38°C° 0 mm 6 mps 716 mmHg 11%
    10:00 +39°C° 0 mm 7 mps 716 mmHg 12%
    11:00 +40°C° 0 mm 8 mps 716 mmHg 12%
    12:00 +40°C° 0 mm 7 mps 716 mmHg 13%
    13:00 +40°C° 0 mm 7 mps 715 mmHg 13%
    14:00 +40°C° 0 mm 7 mps 715 mmHg 14%
    15:00 +40°C° 0 mm 6 mps 714 mmHg 14%
    16:00 +39°C° 0 mm 5 mps 714 mmHg 15%
    17:00 +37°C° 0 mm 4 mps 714 mmHg 15%
    18:00 +36°C° 0 mm 3 mps 714 mmHg 16%
    19:00 +35°C° 0 mm 2 mps 714 mmHg 16%
    20:00 +33°C° 0 mm 1 mps 714 mmHg 17%
    21:00 +33°C° 0 mm 1 mps 714 mmHg 17%
    22:00 +32°C° 0 mm 1 mps 714 mmHg 17%
    23:00 +32°C° 0 mm 1 mps 714 mmHg 17%

    23 May, Thursday

    Time Temperature Precipitation Wind Pressure Humidity
    00:00 +31°C° 0 mm 1 mps 714 mmHg 18%
    01:00 +31°C° 0 mm 1 mps 713 mmHg 18%
    02:00 +30°C° 0 mm 1 mps 713 mmHg 19%
    03:00 +30°C° 0 mm 1 mps 713 mmHg 18%
    04:00 +30°C° 0 mm 1 mps 713 mmHg 17%
    05:00 +30°C° 0 mm 2 mps 713 mmHg 16%
    06:00 +33°C° 0 mm 3 mps 713 mmHg 16%
    07:00 +35°C° 0 mm 4 mps 714 mmHg 16%
    08:00 +37°C° 0 mm 5 mps 715 mmHg 16%
    09:00 +39°C° 0 mm 6 mps 715 mmHg 16%
    10:00 +40°C° 0 mm 6 mps 715 mmHg 15%
    11:00 +41°C° 0 mm 7 mps 715 mmHg 14%
    12:00 +43°C° 0 mm 7 mps 714 mmHg 13%
    13:00 +42°C° 0 mm 6 mps 714 mmHg 12%
    14:00 +42°C° 0 mm 6 mps 713 mmHg 11%
    15:00 +42°C° 0 mm 5 mps 713 mmHg 12%
    16:00 +41°C° 0 mm 5 mps 713 mmHg 13%
    17:00 +41°C° 0 mm 4 mps 713 mmHg 13%
    18:00 +38°C° 0 mm 3 mps 713 mmHg 15%
    19:00 +37°C° 0 mm 2 mps 713 mmHg 16%
    20:00 +34°C° 0 mm 1 mps 713 mmHg 18%
    21:00 +34°C° 0 mm 1 mps 713 mmHg 18%
    22:00 +33°C° 0 mm 1 mps 713 mmHg 18%
    23:00 +33°C° 0 mm 1 mps 713 mmHg 18%

    24 May, Friday

    Time Temperature Precipitation Wind Pressure Humidity
    00:00 +32°C° 0 mm 1 mps 713 mmHg 19%
    01:00 +32°C° 0 mm 1 mps 712 mmHg 20%
    02:00 +31°C° 0 mm 1 mps 712 mmHg 20%
    03:00 +31°C° 0 mm 1 mps 712 mmHg 20%
    04:00 +30°C° 0 mm 1 mps 712 mmHg 20%
    05:00 +30°C° 0 mm 1 mps 712 mmHg 20%
    06:00 +33°C° 0 mm 1 mps 713 mmHg 17%
    07:00 +35°C° 0 mm 1 mps 713 mmHg 14%
    08:00 +38°C° 0 mm 2 mps 714 mmHg 11%
    09:00 +40°C° 0 mm 3 mps 714 mmHg 11%
    10:00 +42°C° 0 mm 4 mps 714 mmHg 10%
    11:00 +43°C° 0 mm 5 mps 714 mmHg 9%
    12:00 +43°C° 0 mm 5 mps 714 mmHg 9%
    13:00 +45°C° 0 mm 6 mps 714 mmHg 9%
    14:00 +45°C° 0 mm 6 mps 713 mmHg 9%
    15:00 +43°C° 0 mm 5 mps 713 mmHg 10%
    16:00 +43°C° 0 mm 5 mps 713 mmHg 11%
    17:00 +42°C° 0 mm 4 mps 712 mmHg 12%
    18:00 +41°C° 0 mm 4 mps 713 mmHg 13%
    19:00 +38°C° 0 mm 3 mps 713 mmHg 15%
    20:00 +37°C° 0 mm 2 mps 713 mmHg 16%
    21:00 +36°C° 0 mm 2 mps 713 mmHg 15%
    22:00 +36°C° 0 mm 2 mps 713 mmHg 14%
    23:00 +34°C° 0 mm 1 mps 713 mmHg 13%

    25 May, Saturday

    Time Temperature Precipitation Wind Pressure Humidity
    00:00 +34°C° 0 mm 2 mps 712 mmHg 18%
    01:00 +32°C° 0 mm 2 mps 712 mmHg 22%
    02:00 +31°C° 0 mm 2 mps 712 mmHg 27%
    03:00 +30°C° 0 mm 1 mps 712 mmHg 28%
    04:00 +30°C° 0 mm 1 mps 712 mmHg 30%
    05:00 +27°C° 0 mm 0 mps 712 mmHg 31%
    06:00 +32°C° 0 mm 1 mps 713 mmHg 26%
    07:00 +34°C° 0 mm 1 mps 714 mmHg 22%
    08:00 +37°C° 0 mm 1 mps 714 mmHg 17%
    09:00 +39°C° 0 mm 2 mps 714 mmHg 17%
    10:00 +40°C° 0 mm 3 mps 714 mmHg 18%
    11:00 +42°C° 0 mm 4 mps 714 mmHg 18%
    12:00 +42°C° 0 mm 5 mps 714 mmHg 19%
    13:00 +42°C° 0 mm 6 mps 713 mmHg 20%
    14:00 +42°C° 0 mm 6 mps 713 mmHg 22%
    15:00 +41°C° 0 mm 6 mps 713 mmHg 23%
    16:00 +41°C° 0 mm 5 mps 712 mmHg 25%
    17:00 +40°C° 0 mm 5 mps 712 mmHg 26%
    18:00 +37°C° 0 mm 4 mps 712 mmHg 30%
    19:00 +36°C° 0 mm 3 mps 712 mmHg 33%
    20:00 +35°C° 0 mm 2 mps 712 mmHg 37%
    21:00 +34°C° 0 mm 2 mps 712 mmHg 37%
    22:00 +34°C° 0 mm 2 mps 712 mmHg 37%
    23:00 +32°C° 0 mm 2 mps 712 mmHg 37%
    Show more